Location: Bonningues
(50.7927°N, 2.0150°E)
Time: 07:07:21
(UTC+00:00)

FALCON 9 DEB - Pass Details

Date: 08 August 2020
Orbit: 427 x 441 km, 53.0° (Epoch: 26 September)

Event Time Altitude Azimuth Distance (km) Brightness Sun altitude
Rises 22:40:56 0° 256° (WSW) 2,431 7.0 -21.3°
Reaches altitude 10° 22:43:03 10° 258° (WSW) 1,563 6.0 -21.4°
Enters shadow 22:45:26 40° 266° (W) 668 4.1 -21.6°
